Weather in Samarga

Russia / Primorsky Krai     47°15′06″N   138°48′07″E
temp.,
°C
wind,
m/s
gust,
m/s
humid.,
%
clouds,
%
prec.,
mm/h
press.,
hPa
HPBL,
m
17 may, tue
tue1701:00+5nnw118296 0.0 100711
04:00+5wsw008025 0.0 100711
07:00+8w127524 0.1 1007122
10:00+13wsw26476 0.1 10081614
13:00+14sse444318 0.0 1007901
16:00+13s36549 0.0 1008461
19:00+10se13715 0.0 1009161
22:00+6nne1190100 0.0 101013
18 may, wed
wed1801:00+7wnw1176100 0.0 100911
04:00+8sw2274100 0.0 100815
07:00+11wsw2867100 0.0 1008353
10:00+15sw4854100 0.1 10081442
13:00+15sw485328 0.1 10081181
16:00+17w483276 0.2 10072527
19:00+15nw49390 0.0 1009944
22:00+9nw22580 0.0 101221
19 may, thu
thu1901:00+7wnw32635 0.0 101330
04:00+7wnw346674 0.0 101347
07:00+9e106189 0.0 101360
10:00+13se235014 0.0 1012446
13:00+13sse374810 0.0 1010437
16:00+13s486281 0.0 1007391
19:00+10s388615 0.0 1006253
22:00+7s1297100 0.1 1006165
20 may, fri
fri2001:00+7wsw0196100 0.1 1004105
04:00+7wnw2296100 0.1 100326
07:00+10n127993 0.0 1003106
10:00+8ene5881100 0.1 1007461
13:00+10e367174 0.0 1008654
16:00+10e346737 0.0 1008657
19:00+8e23737 0.0 1009352
22:00+4e119090 0.0 100927
21 may, sat
sat2101:00+3ne1195100 0.0 100927
04:00+4ene0190100 0.1 100848
07:00+5se018596 0.0 1007247
10:00+5se2295100 2.4 1007207
13:00+6se1194100 0.6 1006304
16:00+8se2184100 0.6 1005400
19:00+6sse1294100 0.3 1005160
22:00+5wnw009799 0.3 100673